Location: Niles Junction
(37.5763°N, 121.9714°W)
Time: 04:39:13
(UTC+00:00)

SJ-12 - Pass Details

Date: 29 October 2020
Orbit: 568 x 585 km, 97.7° (Epoch: 27 November)

Event Time Altitude Azimuth Distance (km) Brightness Sun altitude
Rises 13:30:16 0° 6° (N) 2,803 7.4 -12.5°
Reaches altitude 10° 13:32:28 10° 1° (N) 1,897 6.5 -12.1°
Maximum altitude 13:36:27 52° 286° (WNW) 723 4.0 -11.3°
Drops below altitude 10° 13:40:24 10° 210° (SSW) 1,873 6.3 -10.5°
Sets 13:42:33 0° 205° (SSW) 2,763 7.2 -10.1°
